Weather in Verkhovye

Russia / Smolensk Oblast     54°54′41″N   31°44′57″E
temp.,
°C
wind,
m/s
gust,
m/s
humid.,
%
clouds,
%
prec.,
mm/h
press.,
hPa
HPBL,
m
24 september, fri
fri2400:00+4sse4995100 0.0 1006511
03:00+4sse61295100 0.0 1002602
06:00+5sse71496100 1.4 997840
09:00+6sse71595100 4.9 995934
12:00+7se71495100 3.8 994768
15:00+7se51196100 4.3 994696
18:00+7sse2399100 0.4 996167
21:00+7sse2298100 0.5 99858
25 september, sat
sat2500:00+7sse2396100 0.0 100194
03:00+6s2394100 0.0 100373
06:00+6s2595100 0.0 1004187
09:00+8ssw259896 0.0 1005282
12:00+11sw4682100 0.0 1006830
15:00+9sw4994100 0.4 1006595
18:00+9ssw51298100 2.3 1005609
21:00+11w41098100 3.3 1006475
26 september, sun
sun2600:00+10nw5129499 1.1 1007639
03:00+9nw6129278 1.2 1010879
06:00+6nw5139418 0.0 1012530
09:00+7nw5129299 0.0 1014568
12:00+8nw5108661 0.0 1016798
15:00+12nnw6116897 0.2 10171617
18:00+10nnw51174100 0.0 10191063
21:00+9nnw4118247 0.1 1020821
27 september, mon
mon2700:00+7nnw3109710 0.0 1022319
03:00+6nnw399833 0.0 1023284
06:00+4nnw379951 0.0 1025177
09:00+7n3691100 0.0 1025387
12:00+10nne347788 0.0 1026669
15:00+13nne346281 0.1 10261240
18:00+10nne3681100 0.1 1027354
21:00+8nne389198 0.3 1028266
28 september, tue
tue2800:00+6nne259322 0.1 1028106
03:00+5ne23965 0.1 103051
06:00+5ne23975 0.0 103055
09:00+7ne35895 0.0 1031240
12:00+10ene3575100 0.0 1032692
15:00+11ene2371100 0.0 1032920
18:00+9ne228443 0.0 103229
21:00+6ene239520 0.0 103353